Theta_e
312 313 313 313 313 314 314 313 313 314 315 315 315 315 315 315 315 311 308 316 320 331 328 324 330 327 328 326 323 318 307 304 307 309 312 318 316 320 323 319 321 322 321 324 327
312 312 312 312 313 313 313 313 313 313 314 314 314 314 315 316 309 307 317 331 333 334 314 313 314 319 318 318 319 313 307 307 313 315 314 317 317 318 318 318 318 320 324 326 327
311 312 312 312 313 313 313 313 313 313 313 313 314 314 315 314 307 307 326 333 334 329 314 315 317 319 313 315 315 316 309 313 315 318 318 317 317 321 318 315 319 319 322 324 325
312 312 312 313 313 313 313 313 313 313 313 313 313 314 315 311 297 313 325 323 324 316 312 310 309 307 312 310 313 308 315 316 317 319 318 316 319 317 318 319 323 324 325 325 325
311 312 312 312 312 312 312 312 313 313 313 313 313 313 310 301 303 314 328 325 316 313 309 308 306 307 304 309 313 310 311 314 317 318 317 319 316 316 317 322 324 324 325 325 324
312 312 312 312 312 313 313 313 313 313 312 312 313 313 306 295 310 313 315 315 313 314 312 313 310 311 309 309 309 313 312 313 315 315 316 313 314 316 318 322 322 323 323 324 325
313 313 313 312 312 313 313 313 313 313 313 313 313 311 303 299 310 312 311 311 313 313 311 315 318 314 313 308 313 312 309 312 314 314 314 317 312 313 319 320 319 321 322 323 324
312 312 311 311 312 313 313 313 313 313 313 314 314 310 299 309 312 310 310 308 310 311 310 312 314 310 311 314 310 307 308 304 311 314 315 314 306 315 319 318 317 319 320 322 323
312 312 311 311 311 311 312 312 313 313 314 314 310 306 299 314 306 310 309 305 307 308 310 311 310 307 307 305 303 305 301 302 305 312 312 312 308 315 319 318 317 318 318 320 321
311 311 311 311 311 311 311 310 312 312 313 313 311 302 306 302 306 308 310 309 304 304 304 305 304 300 301 300 295 299 300 303 303 309 311 309 309 314 317 317 317 318 318 318 319
310 311 311 311 312 311 309 309 303 302 307 303 303 303 304 307 307 304 306 304 305 303 296 301 297 295 297 301 302 303 303 302 306 310 309 308 309 311 316 317 316 317 318 318 320
310 310 311 311 311 310 309 304 303 304 295 302 301 300 302 303 297 301 306 298 298 296 300 297 294 301 302 301 300 300 300 301 306 308 308 307 308 312 315 315 316 317 317 318 320
310 311 311 310 310 309 307 305 309 307 295 297 300 299 300 302 297 298 302 298 295 294 296 294 297 302 301 299 298 299 298 300 300 305 307 306 304 309 313 316 317 318 319 320 320
310 310 310 309 306 308 304 308 309 308 289 292 295 299 301 301 296 304 305 300 295 291 294 296 300 298 299 298 300 296 302 301 301 299 296 305 295 306 310 312 315 316 318 318 320
310 310 310 308 307 303 306 309 310 304 278 295 296 306 304 299 301 302 308 301 293 293 293 291 296 297 295 298 302 299 303 302 301 300 300 300 298 302 309 307 310 314 316 318 320
309 309 309 309 309 308 310 309 305 286 278 288 296 296 296 298 299 302 302 305 302 295 295 293 298 297 299 301 301 304 301 301 301 300 294 300 298 298 303 307 310 314 316 317 321
309 308 307 310 303 309 309 301 286 280 291 287 289 293 292 292 295 296 295 294 293 289 289 293 293 296 299 297 301 300 299 292 291 291 291 301 298 300 308 310 311 313 315 318 322
307 306 309 311 311 310 305 292 280 287 287 292 291 291 288 291 291 293 292 290 294 294 291 288 287 293 297 296 296 298 299 293 286 288 292 299 295 301 311 313 315 317 318 320 321
305 312 310 311 311 309 298 285 285 288 291 290 291 288 288 291 291 291 291 290 292 295 287 287 288 299 297 299 300 297 294 301 296 297 293 297 302 307 310 312 315 314 318 319 325
305 308 307 312 312 305 293 287 290 293 293 292 285 287 286 287 287 290 289 292 293 294 297 290 285 295 299 298 299 299 302 294 297 289 288 295 298 300 308 311 313 315 316 319 326
307 302 308 312 310 300 290 290 292 295 295 291 289 288 289 288 289 287 288 292 295 294 296 294 290 291 298 294 293 297 296 298 300 297 292 291 296 310 312 313 312 315 316 319 325
305 297 308 309 296 298 292 292 294 294 296 293 293 291 289 290 289 289 289 292 296 296 290 295 292 288 292 300 300 301 298 299 294 294 297 297 297 313 312 313 315 315 316 322 326
301 300 310 307 290 292 293 293 294 293 294 293 291 292 293 290 287 288 291 296 297 295 292 294 291 286 289 295 300 297 299 301 302 304 297 293 297 313 312 312 315 317 316 322 325
302 296 301 301 299 292 291 290 290 297 294 295 293 294 291 290 292 289 290 294 297 296 297 295 290 288 285 289 294 293 298 300 300 296 297 299 301 307 309 312 316 319 321 323 324
302 297 299 292 293 292 292 291 290 290 294 295 292 292 290 287 289 289 292 293 296 296 296 292 287 290 291 292 293 293 296 298 298 301 298 301 302 306 312 315 318 323 324 323 323
300 296 297 294 295 293 292 291 290 292 292 290 291 292 292 289 290 288 291 292 291 295 293 293 287 292 289 292 291 290 295 298 300 302 303 304 304 313 315 317 318 320 321 321 322
303 303 297 293 293 292 292 291 291 292 294 294 293 291 291 293 296 297 297 297 295 293 292 292 291 289 285 291 289 287 296 299 301 303 305 301 307 312 310 311 317 320 322 321 323
Wind_Speed
17 17 17 18 17 16 16 16 16 16 17 18 18 17 18 19 23 18 15 12 5 9 4 7 12 16 16 18 18 19 15 16 22 23 21 18 16 14 20 4 13 10 11 12 12
17 16 16 17 17 16 16 16 16 15 15 17 19 20 19 19 20 20 19 14 8 11 11 16 16 14 15 17 18 18 16 25 21 22 21 20 17 19 15 6 12 18 17 15 13
17 17 16 17 18 17 17 17 17 17 16 16 17 20 21 22 13 11 7 13 13 15 17 17 18 17 20 21 22 22 23 24 23 22 23 23 22 23 22 18 17 18 15 15 14
18 18 18 18 18 18 19 19 19 19 18 17 16 17 20 13 10 7 6 9 6 10 15 17 18 22 24 25 23 26 29 27 28 26 26 26 24 28 25 24 16 22 17 15 12
19 19 19 19 19 19 18 19 18 18 18 18 18 15 12 12 14 5 7 9 8 11 20 22 23 23 27 25 26 30 29 29 29 26 27 27 29 28 28 25 23 23 20 20 14
17 17 18 19 20 19 19 19 19 18 18 18 15 14 13 24 13 18 14 14 11 15 20 21 23 23 24 28 30 27 29 30 30 29 27 28 29 28 25 25 24 23 21 21 21
18 19 20 21 21 21 22 21 20 19 21 19 16 12 17 24 19 21 18 13 16 18 18 18 21 25 25 30 28 30 31 30 30 29 30 26 32 29 25 25 24 27 22 22 20
17 17 20 21 22 23 25 27 27 23 22 18 14 13 15 17 15 20 21 21 23 21 21 19 20 22 23 27 31 32 33 31 26 30 33 27 32 25 25 22 24 23 21 20 18
16 16 18 19 21 23 24 27 30 30 23 12 9 13 15 12 16 17 17 20 20 19 20 18 20 19 18 21 21 29 23 33 31 28 29 30 33 26 25 25 25 20 20 17 21
19 18 19 21 23 22 23 32 29 17 13 12 13 12 19 13 11 8 4 6 15 17 19 22 16 20 18 20 25 21 31 31 28 26 28 31 29 26 23 26 24 21 15 15 22
21 20 20 21 22 23 21 13 10 5 12 18 11 14 22 15 5 9 9 11 8 14 20 21 17 25 41 30 29 28 31 33 29 27 29 26 26 28 23 20 22 19 14 17 21
23 23 23 23 24 24 15 10 14 9 17 18 26 31 29 26 27 25 18 18 15 17 18 20 29 38 21 32 31 34 31 31 29 27 24 23 26 26 22 22 20 19 17 16 19
22 22 24 25 23 15 10 14 11 13 17 30 35 30 26 26 26 23 21 21 22 22 20 23 37 22 29 30 30 32 31 28 31 25 27 24 26 25 24 24 19 18 20 15 14
24 25 25 26 10 14 10 16 13 13 10 12 12 9 14 10 18 17 21 23 24 27 22 24 25 32 30 34 30 30 27 29 28 24 20 19 19 25 20 21 20 20 17 16 16
24 25 25 15 11 10 17 16 18 4 8 8 3 5 6 12 4 6 10 16 23 22 21 32 22 27 32 36 29 34 21 27 28 26 21 23 16 26 17 17 16 13 14 16 15
24 24 23 3 7 12 13 11 8 6 6 14 16 13 12 11 16 9 7 6 11 19 21 29 26 29 29 26 33 25 26 29 27 19 19 26 19 28 19 18 17 16 17 16 13
25 25 18 11 9 11 10 7 5 5 10 7 18 12 14 9 17 8 12 12 10 15 19 24 28 31 30 29 29 31 23 17 19 19 22 15 21 22 21 18 18 18 15 14 10
27 24 11 10 9 6 6 2 4 20 21 21 16 20 16 14 14 15 11 13 13 15 12 14 19 28 23 33 26 28 25 16 27 17 18 21 27 20 21 21 19 15 10 12 16
28 8 9 4 6 3 6 4 10 16 17 19 19 16 13 16 7 15 10 17 7 6 4 8 16 28 30 29 28 29 30 30 22 21 20 16 18 30 27 20 14 7 12 14 14
9 10 8 5 4 3 3 9 13 11 14 17 8 4 18 17 7 11 9 3 11 3 8 5 16 23 28 30 33 32 20 26 19 26 24 20 23 14 11 15 12 13 9 11 16
7 6 7 1 3 4 6 7 21 15 13 8 20 15 19 19 21 10 8 8 5 5 8 8 9 19 23 26 28 24 27 25 21 18 16 15 13 12 2 9 6 9 13 12 17
6 5 7 1 4 4 9 21 22 24 13 15 11 8 16 14 13 18 15 9 5 8 11 15 7 17 23 20 21 29 25 25 20 24 16 13 15 6 2 5 5 11 15 19 17
7 9 6 4 4 10 16 20 24 15 20 17 11 12 10 11 11 4 11 5 3 3 2 6 7 11 19 18 20 20 28 24 20 11 19 17 15 7 6 8 10 10 15 19 18
6 5 5 5 3 12 15 18 20 22 12 20 19 12 9 19 13 7 9 9 7 7 2 2 8 16 10 8 16 9 24 31 26 17 18 19 9 6 7 8 5 15 19 18 17
4 5 8 8 10 13 15 17 19 13 11 15 14 20 18 19 18 15 11 18 13 7 2 2 9 18 21 12 15 22 30 29 29 23 22 18 17 13 13 11 13 11 16 17 17
6 8 8 13 11 12 15 13 18 19 20 16 13 20 20 17 16 21 19 18 13 2 0 5 5 16 15 14 10 24 32 26 29 27 26 21 14 11 12 14 15 12 14 16 17
5 6 3 9 7 7 10 14 20 18 10 19 18 18 19 19 18 21 22 22 20 17 16 15 6 9 9 5 7 20 24 22 23 25 26 17 6 19 8 8 11 13 14 15 16
Wind_Direction
357 354 353 351 351 349 347 343 339 339 333 331 331 326 327 322 311 280 248 237 237 178 142 248 235 239 228 231 239 237 253 253 257 262 272 286 315 305 293 133 294 313 307 302 292
353 351 350 346 343 343 340 338 335 330 327 326 325 326 323 323 300 270 253 247 162 162 214 228 228 229 223 238 235 228 243 243 246 269 280 274 263 270 275 261 250 299 268 247 289
351 349 348 344 341 338 334 331 328 325 323 322 325 323 319 319 289 262 39 212 171 178 230 239 246 217 231 233 229 231 243 250 257 255 271 275 297 297 291 266 275 280 279 305 302
348 347 345 341 337 334 330 326 323 320 318 318 318 316 313 299 253 79 122 98 100 211 228 239 246 249 238 236 237 241 235 241 254 261 270 274 279 286 290 295 282 280 292 293 298
344 342 340 337 334 330 325 320 316 313 311 312 312 314 308 236 244 233 170 155 175 198 229 234 230 229 237 239 246 238 245 248 251 258 261 267 272 279 278 284 293 294 288 291 281
334 335 334 331 328 324 317 312 307 303 300 298 298 304 275 268 264 265 230 246 246 235 215 221 234 236 246 239 242 247 244 255 259 257 256 263 270 271 275 284 283 277 270 275 266
341 338 335 330 326 321 315 308 300 294 298 295 286 279 267 256 290 298 307 279 261 253 253 254 237 231 242 247 253 252 259 261 256 262 263 269 264 260 271 268 269 274 275 271 272
345 341 337 331 325 319 315 310 304 300 299 289 270 256 258 268 257 260 257 248 255 262 266 269 281 289 263 254 258 249 253 257 251 254 257 258 263 264 270 276 274 280 280 271 258
339 332 327 323 319 313 305 297 293 291 292 270 243 216 273 250 225 247 246 257 249 242 237 242 253 259 266 248 245 244 249 251 249 248 264 258 267 264 252 255 258 258 268 270 277
336 333 326 322 316 310 308 295 274 274 249 235 237 258 239 274 269 197 289 228 232 246 248 227 230 239 241 237 226 222 234 241 256 247 248 247 254 261 255 256 259 246 256 266 273
335 331 326 321 314 310 322 310 347 207 228 263 280 220 293 298 252 236 276 264 251 243 236 224 218 222 220 221 242 238 240 246 253 252 247 253 260 266 276 274 260 268 266 265 260
334 331 328 318 313 311 298 284 337 313 294 275 271 268 267 274 272 267 272 261 245 241 232 230 220 225 232 228 234 242 252 253 263 265 260 261 257 258 247 252 261 262 239 254 281
330 327 326 318 315 292 261 307 334 297 289 278 261 260 262 244 246 249 241 242 243 249 235 224 238 224 235 234 235 238 238 245 257 266 266 268 268 269 268 270 264 257 270 251 257
331 328 326 325 284 323 299 353 319 348 286 283 210 219 221 248 243 240 236 231 236 238 247 248 243 243 226 237 231 242 232 243 249 251 257 254 269 254 261 263 257 254 253 254 245
328 327 323 323 305 328 338 329 320 308 273 107 135 108 164 201 188 179 204 219 235 241 232 243 248 234 239 238 228 246 244 248 247 251 260 253 258 267 270 268 269 276 265 258 246
323 325 329 0 249 331 335 320 315 241 250 359 357 348 360 342 318 311 203 224 250 239 246 252 252 255 248 243 248 247 240 251 259 257 245 242 242 263 257 263 270 270 261 245 251
319 321 314 313 316 349 343 320 271 287 273 3 322 328 307 282 231 249 295 250 225 240 240 248 244 252 250 254 234 237 235 233 234 232 241 243 240 256 265 266 272 272 266 268 264
317 314 263 253 334 325 14 353 275 3 358 349 341 312 300 299 287 272 266 257 253 218 259 277 269 229 235 240 238 225 233 229 223 225 241 239 252 260 253 258 253 278 226 238 232
313 269 246 60 342 5 300 276 8 340 346 338 341 317 310 327 349 304 272 301 355 2 187 321 287 259 225 244 240 234 221 236 250 240 245 257 241 235 243 245 240 238 232 235 128
311 300 284 70 24 284 281 291 305 352 337 325 341 328 311 314 327 310 308 349 306 329 128 296 288 276 271 217 241 237 228 222 228 231 246 234 240 253 184 224 225 194 222 200 134
270 237 107 327 263 292 283 306 311 321 312 352 305 341 321 338 322 274 273 206 221 295 295 246 221 275 282 239 215 226 226 220 244 224 237 247 265 296 81 170 174 194 194 182 140
295 288 116 239 304 261 281 324 323 320 309 308 324 343 301 289 276 306 308 341 275 282 306 300 280 266 267 274 247 233 226 231 219 217 228 249 236 68 129 230 173 260 177 143 141
291 326 103 236 328 323 324 321 308 341 356 313 321 306 4 317 313 360 335 310 4 328 345 338 262 261 257 265 257 256 224 233 238 237 218 233 250 142 148 208 216 180 146 140 143
284 326 319 347 14 305 316 314 318 328 309 342 323 332 3 297 300 279 308 269 267 243 309 298 257 265 263 319 338 318 241 231 222 207 226 219 189 197 180 189 176 132 124 137 149
274 289 345 303 314 314 301 282 311 318 332 333 325 324 330 329 321 322 332 310 311 82 47 173 277 285 259 245 285 298 286 240 224 197 218 226 226 218 165 173 111 116 138 144 152
328 337 342 301 310 305 305 318 315 333 333 319 328 323 317 311 317 308 313 302 300 297 180 229 261 298 275 245 280 300 285 278 219 200 216 240 175 43 96 112 128 145 155 159 157
14 304 295 294 307 291 309 318 318 321 310 314 309 306 308 311 306 292 281 281 280 274 264 265 288 321 254 227 308 277 243 249 246 208 210 203 192 131 211 97 119 146 158 160 155